Location: Caledonia
(42.3690°N, 88.8930°W)
Time: 22:30:41
(UTC-05:00)

Hubble Space Telescope - Visible Passes

Search period start: 28 March 2017 00:00
Search period end: 07 April 2017 00:00
Orbit: 538 x 542 km, 28.5° (Epoch: 27 March)

Date Brightness Start Highest point End Pass type
(mag) Time Alt. Az. Time Alt. Az. Time Alt. Az.
28 Mar 3.2 05:42:12 10° S 05:43:14 11° S 05:44:16 10° SSE visible
29 Mar 3.1 05:31:44 10° SSW 05:33:05 11° S 05:34:25 10° SSE visible
30 Mar 3.0 05:21:52 11° SSW 05:22:56 12° S 05:24:24 10° SSE visible
31 Mar 3.0 05:12:23 12° S 05:12:47 12° S 05:14:16 10° SSE visible
01 Apr 3.1 05:02:56 11° S 05:02:56 11° S 05:04:00 10° SSE visible
02 Apr 3.2 04:53:32 10° S 04:53:32 10° S 04:53:35 10° S visible
